Dewpoint
63 52 52 45 35 27 24 25 17 14 15 12 10 8 8 9 11 7 7 10 13 31 29 27 22 31 31 43 54 57 57 57 59 54 57 62 65 66 66 65 65 66 66 67 68 69 69 71 71 71 71 70 70 70 70 70 71 71 71 71 72 71 72 72 72 73 73 72 72 72 72 72 72 72 72 72 71 71 71 71 71 71 71 70 70 70 70 70 70 70 70 69 69 68 67 66 66
41 39 38 36 27 23 21 19 17 13 12 10 11 9 8 9 11 7 27 29 29 33 31 30 29 31 32 53 49 50 58 59 61 61 62 63 64 66 66 66 65 65 65 67 68 68 68 69 70 71 71 71 71 71 71 71 71 71 71 72 72 72 72 72 73 73 73 72 72 72 72 72 72 72 71 71 71 71 71 71 70 71 71 71 70 70 70 70 70 70 70 70 70 69 68 67 66
42 38 27 24 20 23 20 19 15 14 12 10 12 12 11 10 11 27 30 33 33 33 34 30 32 36 34 46 51 54 57 60 59 59 61 64 64 67 66 66 65 64 65 66 67 67 69 70 71 71 71 71 71 71 71 72 72 72 72 72 72 72 72 73 73 73 73 72 72 72 72 72 72 72 71 71 71 71 71 71 70 70 70 70 70 70 70 70 70 70 70 69 69 69 69 68 67
54 44 34 26 16 15 14 13 14 14 12 11 11 13 12 11 10 11 28 37 35 34 35 32 31 42 44 46 49 54 56 57 59 59 62 64 65 67 66 65 66 64 65 65 65 67 68 70 71 71 71 71 71 71 72 72 72 72 72 72 72 73 73 73 73 72 72 73 72 72 72 72 72 71 71 71 71 71 71 71 71 71 70 70 71 70 69 69 69 69 69 69 69 69 69 68 67
39 32 28 21 14 17 14 15 13 13 12 13 13 13 12 10 11 31 31 35 33 34 34 35 31 47 49 51 51 52 57 60 59 61 62 65 66 66 65 65 64 64 64 65 66 67 68 71 72 72 72 72 72 72 72 72 72 72 73 73 73 73 73 73 72 72 72 72 72 72 72 71 72 71 71 71 71 70 71 70 70 70 70 70 70 70 69 69 69 69 68 68 68 68 68 68 67
34 32 28 21 17 16 12 11 11 11 14 14 13 14 13 12 10 19 28 21 27 36 39 37 33 47 52 54 55 55 58 56 59 63 65 65 66 66 65 65 63 63 65 66 66 67 68 72 72 72 72 72 72 72 72 73 72 73 73 73 73 73 72 72 72 72 72 72 72 72 72 71 71 71 71 71 71 71 70 70 70 70 69 69 69 68 69 69 69 68 67 67 68 69 69 67 67
27 19 17 17 17 16 13 10 8 7 9 12 11 11 10 11 11 16 18 17 33 36 38 37 42 50 51 54 55 56 59 60 61 64 65 66 66 65 64 63 63 64 65 65 66 66 67 72 72 72 72 72 73 73 72 73 73 73 73 73 73 72 72 72 72 72 72 72 72 72 72 71 71 71 70 70 70 70 70 70 69 69 69 69 69 68 67 68 69 68 67 67 69 69 70 69 67
27 16 17 15 14 15 12 10 9 8 7 8 11 11 12 12 11 10 15 17 13 13 35 39 37 32 50 56 55 60 61 61 63 65 65 65 65 64 63 62 63 65 65 66 66 67 71 72 72 72 72 72 72 72 72 73 73 73 73 72 72 72 72 72 72 72 72 71 71 71 71 71 71 70 69 69 68 69 69 69 68 68 67 68 68 68 68 68 68 68 68 68 68 69 69 69 70
19 13 16 11 11 11 10 10 10 10 9 7 7 13 32 11 12 11 10 15 14 10 14 21 37 39 55 56 60 62 62 63 64 66 65 65 63 62 62 62 62 65 65 66 66 67 69 72 72 72 72 72 72 72 72 73 73 73 73 72 72 72 72 72 72 71 71 71 71 71 71 71 70 69 69 69 68 68 68 68 68 67 67 67 67 68 68 68 68 67 67 68 69 70 70 70 70
16 13 15 13 9 9 8 8 8 8 7 6 5 7 8 10 10 7 8 13 12 11 12 36 41 49 53 59 60 62 62 63 64 64 65 64 63 63 62 62 65 66 66 65 65 66 68 71 72 72 72 72 72 72 72 73 73 72 72 72 72 72 72 72 72 71 71 71 71 71 71 70 70 69 69 69 69 68 68 67 66 67 67 67 66 67 68 68 68 68 68 68 68 69 70 70 71
14 12 12 12 12 9 7 6 6 7 7 7 6 6 7 4 4 3 3 2 6 10 9 35 34 48 56 59 62 64 64 63 62 62 63 62 62 62 62 63 66 66 65 65 66 67 67 68 72 72 72 73 73 73 72 72 72 72 72 72 72 72 72 72 72 71 71 71 71 71 70 70 69 69 69 69 68 68 68 68 67 66 66 66 66 66 67 68 68 67 67 67 68 69 70 70 70
14 12 10 10 11 10 7 6 6 5 6 6 5 8 8 4 5 4 3 1 1 6 8 34 38 53 58 61 63 64 63 62 63 62 62 62 61 62 62 65 66 66 66 66 66 66 66 67 68 72 72 72 72 72 72 72 72 72 72 72 72 72 72 72 72 71 71 71 71 70 70 70 69 69 69 68 68 68 68 68 68 66 66 67 67 67 67 67 67 67 67 66 68 69 69 69 70
12 11 10 9 9 9 8 6 5 9 7 6 6 6 6 3 3 4 2 -1 -2 -3 2 18 50 52 57 59 64 65 63 62 63 64 62 62 63 62 63 65 66 66 66 66 66 66 67 66 67 69 71 72 72 72 72 72 72 72 72 72 72 72 72 72 71 71 71 71 71 70 70 70 69 69 69 68 68 68 68 68 68 67 66 66 67 66 67 67 67 67 66 68 67 69 70 70 69
11 10 10 9 8 6 5 6 6 5 4 4 6 5 0 1 3 1 -0 3 4 1 0 46 47 55 60 61 64 63 64 65 64 65 64 64 64 63 64 66 66 66 66 66 66 66 66 67 68 68 70 70 71 71 71 72 72 72 72 72 71 71 71 71 71 71 70 70 70 70 70 69 69 69 69 69 69 68 68 69 68 68 68 66 66 66 67 67 66 67 66 66 69 68 69 69 69
9 8 8 7 5 6 4 3 4 5 4 5 15 10 4 5 5 6 10 8 8 4 9 50 56 55 58 59 61 63 64 65 65 65 65 64 64 65 65 66 67 66 65 66 66 67 67 68 67 67 68 68 69 70 71 70 71 72 71 71 71 71 71 71 71 71 71 71 70 70 70 70 69 69 68 69 68 68 69 69 69 69 68 67 66 65 66 66 66 65 67 66 66 68 68 69 70
9 5 6 8 4 3 3 2 4 4 5 5 10 16 12 16 15 12 16 16 12 6 -1 49 48 45 58 58 61 64 65 65 66 65 65 64 65 65 65 66 65 66 66 67 68 68 68 68 67 67 66 66 67 69 70 70 71 72 71 71 71 71 71 71 71 71 71 71 71 71 70 70 69 68 68 67 69 69 69 68 68 69 68 67 67 66 66 66 66 67 65 66 65 67 69 70 70
10 8 7 5 3 1 1 1 3 4 5 -0 11 13 13 12 16 19 26 23 17 10 0 41 50 53 54 54 62 65 65 66 67 65 65 65 65 65 65 66 66 66 68 68 69 69 69 68 68 67 67 67 66 67 69 70 70 71 71 71 71 71 71 71 71 71 71 71 71 71 71 70 70 69 68 66 69 66 68 67 67 68 68 68 67 67 66 67 66 67 66 65 67 67 67 69 70
10 8 5 4 2 1 1 1 4 4 2 2 12 11 11 9 9 27 32 26 20 10 49 54 57 51 51 58 65 66 65 66 67 65 64 64 65 64 64 65 65 65 66 69 69 69 69 67 67 68 68 68 67 67 68 69 70 70 70 70 71 71 71 71 70 70 71 69 71 70 71 70 70 69 70 69 69 68 68 69 68 68 68 69 68 68 67 66 67 67 66 68 66 67 68 68 69
9 8 6 4 4 2 3 4 4 3 2 1 9 11 10 8 6 12 28 26 21 10 50 60 62 62 61 64 65 65 65 66 67 66 64 64 63 64 64 65 66 66 66 66 68 68 68 68 68 68 68 67 67 66 66 67 68 69 68 69 70 71 71 70 69 70 69 66 67 68 70 70 69 69 69 68 70 70 69 69 69 68 69 68 69 68 69 69 68 67 66 66 66 68 67 64 66
9 8 7 7 4 1 1 1 1 1 -2 5 10 12 12 11 8 8 23 28 24 15 52 57 62 63 63 64 65 65 65 66 67 66 65 64 63 64 65 65 64 65 65 66 67 67 66 67 68 67 66 67 65 64 65 66 66 66 66 67 69 70 70 69 68 67 64 65 65 70 72 70 71 70 67 69 70 70 69 70 69 69 69 68 68 69 69 69 69 69 67 66 67 64 62 62 62
10 8 7 5 3 0 -1 -2 -6 -9 -4 1 8 11 10 10 9 12 11 27 28 22 52 52 60 62 62 63 65 65 65 66 66 66 66 62 64 65 64 65 64 64 65 65 65 66 65 67 66 67 67 66 66 64 64 64 66 65 64 67 67 68 68 68 68 69 70 69 68 71 71 70 70 72 71 71 72 72 69 69 69 69 69 68 68 67 67 65 69 65 63 67 60 59 57 58 60
12 10 6 4 3 -2 -3 -4 -10 -6 3 4 7 10 8 6 2 2 8 20 28 22 32 53 61 62 62 63 64 64 65 66 66 65 65 64 65 65 65 64 66 65 65 63 63 64 65 66 66 65 66 67 66 64 64 64 65 64 65 66 66 66 67 67 69 69 69 70 70 71 70 70 70 72 71 71 72 72 71 72 72 71 70 70 69 67 67 68 65 65 62 59 57 58 56 58 64
10 9 6 6 3 -1 -3 -2 4 2 3 7 8 8 7 0 -5 17 16 20 28 26 23 56 61 63 63 63 63 63 64 66 66 64 64 64 64 65 65 64 64 63 63 62 62 63 65 66 65 65 66 66 66 65 65 63 64 67 67 68 67 67 69 67 68 69 69 70 71 71 71 70 69 70 71 71 71 70 70 70 71 71 70 70 70 67 69 71 70 66 67 64 62 61 58 60 64
9 6 5 5 3 0 -1 2 6 6 6 8 7 6 3 1 9 21 26 28 30 39 45 56 60 62 63 62 62 63 64 65 65 64 64 65 65 65 65 65 63 63 62 62 61 63 64 63 63 64 64 66 68 67 65 63 68 67 68 67 67 69 68 69 68 69 70 70 71 71 71 70 69 69 70 71 69 70 70 70 70 71 69 70 71 70 72 71 71 69 68 64 61 60 57 64 63
8 7 6 5 3 0 -3 2 8 10 10 9 6 4 2 6 8 19 29 32 30 55 56 58 60 60 60 61 62 63 65 64 64 64 64 63 65 66 65 63 63 62 61 62 61 62 62 63 63 60 62 65 68 67 63 66 66 68 67 67 69 67 68 69 69 69 69 70 70 70 71 72 71 69 70 70 70 68 68 71 72 71 69 70 70 70 71 70 68 69 70 68 66 64 66 64 63
10 8 7 6 4 3 -1 5 10 10 10 8 5 5 6 7 6 10 23 53 54 51 55 57 58 59 60 61 61 63 64 63 64 65 65 66 65 64 64 61 62 61 61 62 61 62 61 61 61 59 63 66 67 68 66 68 67 67 70 69 70 71 70 69 69 71 73 72 70 71 71 72 71 70 70 70 69 68 70 70 72 72 69 70 71 69 68 69 71 70 67 67 63 69 68 65 66
9 8 7 7 7 5 9 9 9 10 10 6 5 5 5 6 5 8 60 57 58 59 58 57 56 57 59 60 62 63 63 62 62 65 65 64 63 62 62 62 61 61 62 62 61 62 63 61 61 64 66 68 67 65 68 67 68 69 69 70 69 69 70 70 72 73 72 71 72 72 70 70 72 71 69 69 70 69 70 71 71 70 71 71 71 69 72 71 69 69 68 68 70 67 69 69 65
6 7 6 7 8 5 8 12 12 9 7 6 7 6 5 5 5 39 57 58 60 59 59 58 59 61 61 61 62 62 63 64 65 64 63 63 64 62 61 59 60 61 62 63 62 63 64 65 65 64 66 67 68 67 66 66 67 67 67 69 70 70 72 71 71 72 71 72 71 71 72 72 71 72 73 70 71 70 71 70 72 71 69 70 70 70 70 70 69 67 65 67 68 68 66 66 66
5 6 5 6 5 3 6 10 11 11 6 4 7 5 4 3 45 56 57 58 58 58 59 59 59 60 60 59 61 62 63 63 63 63 63 64 64 66 60 61 61 61 62 65 63 64 65 66 65 66 67 67 67 67 67 67 68 67 68 67 67 70 71 71 71 70 73 71 71 71 71 71 74 71 73 71 69 70 70 72 71 71 72 72 71 70 71 71 72 69 72 69 69 68 66 65 66
4 5 5 9 8 5 5 8 10 7 4 3 6 5 4 53 55 57 59 57 58 57 56 57 59 60 59 60 60 60 62 62 62 63 63 64 65 66 62 62 62 61 61 64 66 64 65 65 65 65 66 67 67 68 68 68 67 68 68 67 68 68 71 71 70 72 71 71 70 71 69 71 71 71 72 71 71 70 72 71 69 70 71 70 72 73 70 70 71 69 69 68 68 68 65 64 65
0 3 4 7 6 3 3 4 8 6 5 4 6 6 34 53 56 59 58 59 57 55 56 57 59 59 59 59 59 60 61 62 62 63 63 64 65 66 64 66 67 67 65 66 66 65 66 67 66 66 66 66 66 68 68 68 68 67 68 69 68 67 69 70 71 71 71 70 70 70 70 70 71 71 71 71 71 71 68 70 69 70 69 70 69 70 70 69 69 68 66 66 68 67 65 65 65
4 6 8 6 5 4 1 2 5 7 6 4 4 7 36 53 56 59 60 58 57 56 56 57 58 59 58 59 59 60 61 63 63 63 64 64 65 65 65 66 66 65 65 65 65 65 65 66 65 66 67 66 67 66 67 68 68 68 69 68 69 68 68 69 70 70 70 71 69 69 69 70 70 71 71 70 72 70 69 69 72 72 70 70 70 70 69 67 69 68 68 67 67 66 65 64 64
5 7 8 4 4 4 1 2 5 7 5 2 2 1 51 53 56 59 59 58 57 56 57 56 59 60 59 58 59 60 60 61 62 63 63 64 65 65 65 66 66 65 65 65 65 65 66 66 66 66 65 66 66 66 67 66 67 68 68 68 68 68 68 69 69 71 70 70 68 69 70 69 69 69 69 70 72 70 70 70 70 70 72 70 71 71 70 67 67 68 69 69 68 66 66 64 64
5 5 7 5 4 2 -4 -2 3 6 5 -0 1 5 47 52 54 58 59 58 56 55 56 57 57 58 58 59 60 60 60 61 61 62 63 64 65 65 65 66 66 66 65 65 65 66 66 67 66 66 66 67 67 66 67 67 68 68 68 69 68 67 68 68 70 68 69 68 68 68 68 69 69 68 68 68 70 69 69 70 68 68 68 70 69 70 68 68 68 68 67 68 67 67 65 64 64
7 10 12 6 3 0 -5 -7 -3 4 4 0 1 4 48 50 53 56 59 59 56 55 56 57 57 57 58 59 60 61 60 60 61 62 63 64 64 64 65 66 65 65 65 66 66 65 66 66 66 66 66 67 67 67 67 67 68 68 68 68 67 68 68 68 69 68 67 67 67 67 67 69 68 67 66 67 68 66 66 66 67 67 66 67 67 66 66 66 66 66 66 66 67 66 66 65 65
3 7 8 4 3 -1 -5 -7 -4 2 1 -1 -0 23 45 48 51 56 56 56 55 56 57 57 57 58 58 59 59 59 60 60 61 62 63 64 65 65 65 65 66 65 65 66 65 65 66 67 67 67 67 67 66 67 67 67 68 67 66 67 67 66 66 66 67 66 66 65 66 67 66 67 66 67 66 66 67 67 66 66 67 66 66 66 66 65 65 65 65 65 65 65 65 64 65 66 65
4 3 3 1 -1 -4 -5 -6 -6 -0 -1 1 1 37 44 47 52 54 55 54 54 55 55 57 57 57 58 58 58 58 59 60 62 62 63 64 64 65 65 65 65 65 65 65 64 64 66 66 67 66 67 66 66 67 66 66 66 66 66 66 65 65 65 66 66 66 65 65 65 65 66 66 65 66 65 66 65 66 66 66 65 64 64 64 64 64 64 64 64 64 64 65 64 63 63 64 64
3 -0 1 0 -3 -7 -5 -5 -7 0 7 4 5 33 46 49 51 52 55 55 54 54 54 56 55 56 57 58 58 58 60 61 61 62 62 63 63 64 64 64 64 64 64 64 64 64 66 66 66 65 67 66 66 66 67 67 67 67 65 64 65 65 65 64 63 65 65 65 65 64 65 64 64 63 64 64 64 64 64 64 64 64 63 63 64 63 63 63 63 63 62 62 62 62 62 63 63
3 -1 -1 -2 -4 -7 -6 -5 -6 3 6 8 4 47 48 51 52 54 55 54 54 56 57 57 57 56 57 57 58 59 59 60 61 61 62 62 63 63 64 64 64 64 64 64 65 65 65 66 66 65 65 66 67 67 67 66 67 68 67 65 65 65 64 64 64 65 65 63 64 63 63 63 62 61 61 62 62 62 62 62 62 63 62 62 62 62 62 62 62 62 61 61 60 61 60 61 61
4 0 -0 -1 -4 -8 -6 -5 -11 2 9 7 31 47 49 51 52 53 53 53 55 56 56 57 58 58 58 57 58 58 59 59 60 60 61 61 62 63 64 64 64 64 64 65 65 64 64 66 65 66 65 65 66 66 66 66 67 67 67 66 66 65 63 65 65 64 62 61 61 61 60 60 59 60 59 59 59 59 60 60 60 61 61 61 61 61 60 60 60 60 60 59 59 58 57 58 60
5 -1 -4 -4 -3 -6 -7 -8 1 4 7 38 45 47 48 49 50 50 52 52 53 54 55 56 57 58 60 58 58 58 59 60 60 60 61 61 62 62 62 63 64 63 64 64 64 64 65 65 65 65 65 66 65 65 66 66 66 66 66 64 66 65 65 64 63 62 62 60 59 59 58 59 58 58 58 57 58 59 58 59 59 59 60 60 59 59 59 59 59 57 57 58 57 57 56 57 58
3 0 -2 -1 -2 -4 -7 2 8 11 10 36 36 39 42 46 47 48 51 52 52 54 55 54 55 56 58 58 57 57 59 59 59 60 60 61 61 62 62 63 63 63 64 63 64 65 65 66 65 65 65 66 66 66 66 67 66 65 65 64 64 63 62 62 61 61 60 59 57 59 57 57 57 57 56 56 56 57 57 57 58 56 58 59 59 60 58 57 57 56 56 57 57 58 57 56 55
6 0 -1 2 2 -3 -7 -0 9 15 14 11 38 30 36 42 45 46 49 49 51 54 54 55 55 55 56 58 57 57 57 58 60 60 60 60 60 61 61 61 62 62 63 64 65 65 65 66 65 64 64 66 65 65 65 67 65 65 65 63 63 62 60 60 61 61 60 59 59 58 57 57 55 56 56 55 55 55 57 57 57 56 55 56 58 56 56 56 56 56 56 56 56 57 57 55 55
-1 -2 4 6 6 -1 -4 4 16 17 18 18 17 26 39 40 43 46 49 49 50 52 52 54 54 55 57 57 58 57 57 58 59 59 60 60 60 60 61 61 61 61 62 63 64 64 64 64 64 62 62 61 64 64 63 64 64 64 63 62 62 61 60 60 60 60 60 59 58 57 56 56 55 54 54 53 53 54 55 55 54 55 55 53 55 53 54 55 56 56 56 56 55 56 55 54 54
-3 6 7 7 6 1 -1 0 14 17 19 17 16 19 33 38 41 45 49 47 48 50 51 53 54 54 54 56 59 57 57 58 58 59 59 59 60 60 60 60 60 61 62 63 64 64 63 63 61 61 60 60 62 61 61 61 62 63 63 62 61 60 60 59 59 59 58 58 57 57 56 53 54 54 53 54 53 52 53 53 53 53 53 54 53 53 54 53 55 55 54 55 54 54 53 54 54
4 8 8 6 4 -1 -0 -1 8 14 19 19 15 19 24 30 39 44 47 46 45 47 49 50 53 54 54 55 56 56 57 59 59 59 59 59 60 59 60 59 59 60 61 62 62 63 61 60 60 59 59 59 60 61 61 60 61 61 61 61 60 59 59 59 59 58 58 58 57 56 56 56 53 54 54 52 53 51 52 52 51 51 53 53 53 52 53 53 54 53 53 54 53 52 52 53 53
6 5 -1 -1 -4 4 10 10 11 16 19 19 17 18 23 23 42 44 45 45 45 48 48 49 53 54 55 57 55 56 56 58 58 58 59 59 59 59 59 58 59 59 60 61 61 60 60 59 58 58 58 58 59 59 59 59 59 59 59 58 59 58 59 58 58 58 57 57 55 54 54 55 54 54 55 54 53 52 52 52 52 50 52 54 52 51 52 52 52 52 52 52 52 52 51 52 52
4 5 0 -0 5 10 15 17 18 19 19 20 18 10 22 26 40 45 46 46 46 48 48 47 50 52 53 53 53 56 56 57 59 59 59 58 58 58 58 58 58 58 59 59 59 59 59 58 57 57 58 58 57 58 58 58 57 58 58 57 56 58 58 57 57 57 57 55 55 53 54 55 54 54 54 53 52 51 52 52 51 51 51 52 52 52 52 51 52 50 52 51 51 52 52 52 51
7 7 -1 7 7 15 13 19 21 19 18 19 14 10 17 22 35 40 43 44 45 48 46 46 47 50 51 52 53 56 55 58 58 58 58 57 57 57 57 57 57 58 58 58 58 58 57 57 57 56 56 56 57 57 57 57 57 56 56 56 56 57 57 56 56 56 55 55 54 53 53 52 52 51 51 50 50 50 50 51 50 50 51 51 51 52 51 51 53 51 50 51 52 51 51 51 51
5 1 6 9 8 10 17 16 20 18 18 15 14 13 10 20 32 41 41 40 43 47 50 48 50 51 53 52 52 55 55 57 57 57 57 57 56 56 56 56 56 57 57 57 57 57 56 56 56 55 55 56 56 56 56 55 55 56 56 55 55 55 55 56 55 54 54 54 53 52 51 51 50 50 50 50 49 47 48 48 49 50 49 49 49 50 51 50 52 48 48 50 50 52 51 51 50
-4 3 6 12 11 13 17 12 15 15 14 15 10 15 18 18 26 38 41 39 47 50 49 50 50 51 54 53 51 55 55 56 56 56 56 56 56 56 56 56 56 56 56 56 56 56 56 55 55 54 54 54 55 55 55 54 54 55 54 54 54 54 54 54 54 54 54 52 51 51 52 51 49 49 48 50 49 49 48 47 48 48 49 49 48 49 49 49 50 48 48 50 50 51 51 50 49
-2 6 5 9 12 12 10 15 16 19 17 16 15 21 20 21 40 37 36 39 44 48 48 49 48 50 54 53 51 54 55 56 55 55 55 56 56 56 56 56 56 56 55 56 55 55 55 54 54 54 53 54 53 53 53 53 53 53 53 53 54 53 53 53 53 53 52 52 52 51 50 50 49 48 48 48 49 48 48 45 45 46 47 47 47 46 46 46 48 49 48 47 47 48 49 47 47
1 4 9 8 6 8 21 21 24 27 20 15 19 20 35 36 36 34 36 34 35 36 49 48 48 51 54 52 51 54 55 55 55 55 55 55 56 56 56 56 55 55 55 55 55 55 55 54 54 53 52 52 52 52 53 52 53 52 52 52 52 52 52 52 52 52 52 52 53 51 50 49 50 50 48 49 48 48 48 47 46 46 46 47 47 46 45 46 47 47 46 45 46 47 48 48 47
-2 5 6 7 5 8 19 12 18 18 15 17 17 13 29 23 30 31 32 35 34 35 43 49 52 51 53 52 52 51 55 55 55 55 55 55 55 55 55 55 55 55 54 55 54 55 55 54 53 52 52 51 51 51 51 52 51 51 51 51 51 52 51 51 51 51 51 51 50 50 50 49 48 48 47 48 48 47 47 46 46 45 46 46 46 45 45 45 46 46 46 45 45 47 46 47 46
-1 2 7 7 13 11 13 20 18 16 15 13 12 11 20 20 28 32 30 32 34 36 45 52 52 52 52 52 52 52 55 55 55 55 55 55 55 55 55 55 54 54 54 54 53 53 53 54 53 52 51 51 50 50 50 50 50 51 51 50 51 50 50 50 50 50 50 48 48 48 48 49 49 49 48 48 46 44 45 45 46 44 45 44 44 45 46 46 45 45 45 45 44 45 45 44 46
-1 1 2 5 10 14 10 15 11 14 13 15 10 9 13 22 27 32 30 34 38 38 45 50 51 53 53 52 52 53 54 55 56 55 55 56 55 55 55 54 53 53 52 53 53 52 52 53 52 51 51 50 50 49 50 50 49 49 50 49 49 47 47 47 48 49 48 46 44 46 46 47 48 47 47 46 44 43 43 42 43 43 43 43 42 44 45 44 46 46 45 44 43 43 42 42 44
-2 1 4 3 16 8 7 19 9 12 14 12 12 12 18 25 25 29 32 41 40 43 42 47 49 51 52 54 54 54 54 55 56 56 56 56 55 55 55 54 53 53 52 52 52 51 51 51 51 50 49 49 49 49 49 49 49 49 48 48 48 48 48 47 48 48 47 46 47 46 45 46 45 46 45 44 44 42 40 41 40 41 39 40 41 42 44 44 44 45 45 44 43 42 42 43 43
-0 3 3 -1 4 7 8 12 6 7 10 16 11 11 23 36 31 33 33 37 45 46 47 49 51 52 52 54 54 54 55 55 55 55 56 56 55 54 54 53 53 52 52 51 51 51 50 50 49 48 48 48 47 47 47 47 48 48 48 48 48 48 48 47 48 47 46 44 45 47 47 46 46 45 43 41 43 44 42 41 40 38 39 38 38 39 40 42 41 43 45 45 44 42 42 41 43